When you browse on this site, cookies collect data to enhance your experience and personalize the content and advertising you see.
Visit our Privacy Policy to learn more. By continuing to use the site, you agree to this use of cookies and data.
  • In Romania
  • List of Countries
  • For 7 days
  • Water Temperature
  • Weather Map
  • Weather Widgets
  • user-avatar
    Login

    Hourly Weather Goiania

    Today, 26 February, Wednesday

    Time Temperature Precipitation Wind Pressure Humidity
    00:00 +21°C° 0 mm 0 mps 698 mmHg 89%
    01:00 +21°C° 0 mm 0 mps 698 mmHg 89%
    02:00 +21°C° 0 mm 0 mps 697 mmHg 89%
    03:00 +23°C° 0 mm 1 mps 697 mmHg 89%
    04:00 +22°C° 0 mm 1 mps 697 mmHg 88%
    05:00 +20°C° 0 mm 0 mps 697 mmHg 88%
    06:00 +20°C° 0 mm 0 mps 697 mmHg 88%
    07:00 +24°C° 0 mm 1 mps 698 mmHg 84%
    08:00 +25°C° 0 mm 1 mps 699 mmHg 80%
    09:00 +27°C° 0 mm 1 mps 699 mmHg 75%
    10:00 +28°C° 0.1 mm 2 mps 699 mmHg 72%
    11:00 +29°C° 0.1 mm 2 mps 699 mmHg 69%
    12:00 +30°C° 0.1 mm 3 mps 699 mmHg 66%
    13:00 +30°C° 0.6 mm 3 mps 698 mmHg 69%
    14:00 +30°C° 0.6 mm 3 mps 698 mmHg 72%
    15:00 +30°C° 0.6 mm 3 mps 697 mmHg 75%
    16:00 +29°C° 1 mm 2 mps 697 mmHg 79%
    17:00 +28°C° 1 mm 2 mps 696 mmHg 83%
    18:00 +27°C° 1 mm 2 mps 696 mmHg 87%
    19:00 +26°C° 0.4 mm 1 mps 696 mmHg 88%
    20:00 +25°C° 0.4 mm 1 mps 697 mmHg 90%
    21:00 +24°C° 0.4 mm 1 mps 697 mmHg 92%
    22:00 +24°C° 0.4 mm 1 mps 697 mmHg 92%
    23:00 +24°C° 0.4 mm 1 mps 698 mmHg 93%

    Tomorrow, 27 February, Thursday

    Time Temperature Precipitation Wind Pressure Humidity
    00:00 +24°C° 0.4 mm 1 mps 698 mmHg 94%
    01:00 +23°C° 1.2 mm 1 mps 697 mmHg 94%
    02:00 +23°C° 1.2 mm 1 mps 697 mmHg 95%
    03:00 +21°C° 1.2 mm 0 mps 696 mmHg 95%
    04:00 +21°C° 0.4 mm 0 mps 696 mmHg 95%
    05:00 +23°C° 0.4 mm 1 mps 696 mmHg 95%
    06:00 +23°C° 0.4 mm 1 mps 697 mmHg 96%
    07:00 +22°C° 0 mm 0 mps 697 mmHg 92%
    08:00 +23°C° 0 mm 0 mps 698 mmHg 89%
    09:00 +25°C° 0 mm 0 mps 698 mmHg 86%
    10:00 +26°C° 0.4 mm 0 mps 698 mmHg 80%
    11:00 +29°C° 0.4 mm 1 mps 698 mmHg 75%
    12:00 +31°C° 0.4 mm 1 mps 698 mmHg 70%
    13:00 +30°C° 1.9 mm 1 mps 697 mmHg 72%
    14:00 +30°C° 1.9 mm 1 mps 697 mmHg 75%
    15:00 +30°C° 1.9 mm 2 mps 696 mmHg 77%
    16:00 +29°C° 1.9 mm 2 mps 696 mmHg 81%
    17:00 +28°C° 1.9 mm 1 mps 695 mmHg 84%
    18:00 +27°C° 1.9 mm 1 mps 695 mmHg 88%
    19:00 +26°C° 0.6 mm 1 mps 696 mmHg 89%
    20:00 +26°C° 0.6 mm 1 mps 696 mmHg 90%
    21:00 +25°C° 0.6 mm 1 mps 697 mmHg 91%
    22:00 +25°C° 0.2 mm 1 mps 697 mmHg 91%
    23:00 +24°C° 0.2 mm 1 mps 697 mmHg 91%

    Day after tomorrow, 28 February, Friday

    Time Temperature Precipitation Wind Pressure Humidity
    00:00 +24°C° 0.2 mm 1 mps 697 mmHg 92%
    01:00 +24°C° 1.4 mm 1 mps 697 mmHg 92%
    02:00 +24°C° 1.4 mm 1 mps 697 mmHg 92%
    03:00 +24°C° 1.4 mm 1 mps 696 mmHg 93%
    04:00 +22°C° 1.1 mm 0 mps 697 mmHg 92%
    05:00 +22°C° 1.1 mm 0 mps 697 mmHg 92%
    06:00 +22°C° 1.1 mm 0 mps 697 mmHg 91%
    07:00 +22°C° 0 mm 0 mps 698 mmHg 90%
    08:00 +25°C° 0 mm 1 mps 698 mmHg 88%
    09:00 +26°C° 0 mm 1 mps 699 mmHg 87%
    10:00 +27°C° 0.1 mm 2 mps 699 mmHg 82%
    11:00 +28°C° 0.1 mm 3 mps 699 mmHg 78%
    12:00 +29°C° 0.1 mm 4 mps 699 mmHg 74%
    13:00 +29°C° 0.8 mm 3 mps 698 mmHg 76%
    14:00 +29°C° 0.8 mm 3 mps 698 mmHg 78%
    15:00 +28°C° 0.8 mm 3 mps 697 mmHg 80%
    16:00 +28°C° 0.6 mm 2 mps 697 mmHg 83%
    17:00 +27°C° 0.6 mm 2 mps 697 mmHg 87%
    18:00 +26°C° 0.6 mm 1 mps 697 mmHg 90%
    19:00 +26°C° 1.5 mm 1 mps 697 mmHg 91%
    20:00 +25°C° 1.5 mm 1 mps 697 mmHg 92%
    21:00 +24°C° 1.5 mm 1 mps 698 mmHg 93%
    22:00 +24°C° 1.8 mm 1 mps 698 mmHg 92%
    23:00 +24°C° 1.8 mm 1 mps 698 mmHg 91%

    29 February, Saturday

    Time Temperature Precipitation Wind Pressure Humidity
    00:00 +24°C° 1.8 mm 1 mps 698 mmHg 91%
    01:00 +24°C° 1 mm 1 mps 698 mmHg 91%
    02:00 +24°C° 1 mm 1 mps 698 mmHg 91%
    03:00 +24°C° 1 mm 1 mps 697 mmHg 91%
    04:00 +23°C° 0.8 mm 1 mps 698 mmHg 92%
    05:00 +23°C° 0.8 mm 1 mps 698 mmHg 93%
    06:00 +21°C° 0.8 mm 0 mps 698 mmHg 94%
    07:00 +23°C° 3.2 mm 1 mps 699 mmHg 95%
    08:00 +23°C° 3.2 mm 1 mps 699 mmHg 96%
    09:00 +23°C° 3.2 mm 1 mps 700 mmHg 96%
    10:00 +23°C° 8.4 mm 1 mps 699 mmHg 96%
    11:00 +23°C° 8.4 mm 1 mps 699 mmHg 97%
    12:00 +23°C° 8.4 mm 1 mps 699 mmHg 97%
    13:00 +23°C° 2.1 mm 1 mps 699 mmHg 96%
    14:00 +23°C° 2.1 mm 2 mps 698 mmHg 96%
    15:00 +23°C° 2.1 mm 2 mps 698 mmHg 96%
    16:00 +23°C° 1.1 mm 2 mps 698 mmHg 95%
    17:00 +23°C° 1.1 mm 2 mps 698 mmHg 94%
    18:00 +23°C° 1.1 mm 2 mps 697 mmHg 93%
    19:00 +23°C° 0 mm 2 mps 698 mmHg 93%
    20:00 +22°C° 0 mm 1 mps 698 mmHg 93%
    21:00 +22°C° 0 mm 1 mps 698 mmHg 93%
    22:00 +22°C° 0 mm 1 mps 698 mmHg 93%
    23:00 +20°C° 0 mm 0 mps 698 mmHg 92%

    1 March, Sunday

    Time Temperature Precipitation Wind Pressure Humidity
    00:00 +20°C° 0 mm 0 mps 698 mmHg 92%
    01:00 +19°C° 0 mm 0 mps 698 mmHg 92%
    02:00 +19°C° 0 mm 0 mps 698 mmHg 91%
    03:00 +19°C° 0 mm 0 mps 697 mmHg 91%
    04:00 +19°C° 0 mm 0 mps 697 mmHg 91%
    05:00 +19°C° 0 mm 0 mps 697 mmHg 91%
    06:00 +19°C° 0 mm 0 mps 697 mmHg 92%
    07:00 +22°C° 0 mm 1 mps 698 mmHg 89%
    08:00 +24°C° 0 mm 1 mps 699 mmHg 86%
    09:00 +25°C° 0 mm 1 mps 700 mmHg 83%
    10:00 +26°C° 0.1 mm 2 mps 699 mmHg 79%
    11:00 +27°C° 0.1 mm 2 mps 699 mmHg 76%
    12:00 +29°C° 0.1 mm 3 mps 699 mmHg 72%
    13:00 +29°C° 1.3 mm 3 mps 698 mmHg 75%
    14:00 +28°C° 1.3 mm 3 mps 698 mmHg 78%
    15:00 +28°C° 1.3 mm 2 mps 697 mmHg 80%
    16:00 +28°C° 1.5 mm 2 mps 697 mmHg 84%
    17:00 +27°C° 1.5 mm 2 mps 696 mmHg 87%
    18:00 +26°C° 1.5 mm 1 mps 696 mmHg 91%
    19:00 +25°C° 0.9 mm 1 mps 696 mmHg 91%
    20:00 +24°C° 0.9 mm 1 mps 697 mmHg 91%
    21:00 +24°C° 0.9 mm 1 mps 697 mmHg 91%
    22:00 +21°C° 0.4 mm 0 mps 697 mmHg 91%
    23:00 +21°C° 0.4 mm 0 mps 697 mmHg 92%

    2 March, Monday

    Time Temperature Precipitation Wind Pressure Humidity
    00:00 +21°C° 0.4 mm 0 mps 697 mmHg 92%
    01:00 +21°C° 0.8 mm 0 mps 697 mmHg 93%
    02:00 +22°C° 0.8 mm 1 mps 696 mmHg 94%
    03:00 +22°C° 0.8 mm 1 mps 696 mmHg 95%
    04:00 +22°C° 1.2 mm 1 mps 696 mmHg 95%
    05:00 +22°C° 1.2 mm 1 mps 696 mmHg 96%
    06:00 +22°C° 1.2 mm 1 mps 696 mmHg 96%
    07:00 +23°C° 0.4 mm 1 mps 697 mmHg 94%
    08:00 +24°C° 0.4 mm 1 mps 698 mmHg 92%
    09:00 +25°C° 0.4 mm 1 mps 698 mmHg 89%
    10:00 +26°C° 1.6 mm 1 mps 698 mmHg 87%
    11:00 +27°C° 1.6 mm 2 mps 698 mmHg 86%
    12:00 +28°C° 1.6 mm 2 mps 697 mmHg 84%
    13:00 +28°C° 2.3 mm 2 mps 697 mmHg 84%
    14:00 +28°C° 2.3 mm 2 mps 697 mmHg 84%
    15:00 +28°C° 2.3 mm 2 mps 696 mmHg 84%
    16:00 +27°C° 2.4 mm 1 mps 696 mmHg 86%
    17:00 +27°C° 2.4 mm 1 mps 695 mmHg 89%
    18:00 +26°C° 2.4 mm 1 mps 695 mmHg 91%
    19:00 +25°C° 1.8 mm 2 mps 696 mmHg 92%
    20:00 +24°C° 1.8 mm 3 mps 696 mmHg 93%
    21:00 +21°C° 1.8 mm 4 mps 696 mmHg 94%
    22:00 +21°C° 0 mm 3 mps 696 mmHg 94%
    23:00 +21°C° 0 mm 3 mps 697 mmHg 95%
    Show more